Время (UTC), дата Ветер
(°,м/с) 
Видим.   Явления Облачность Т
(°С)
Тd
(°С)
f(%) Тe
(°С)
Pmin
(гПа)
dP
(гПа)
Po
(мм)
O2
(г/м3)
Тmin Tmax R s Состояние
почвы
00 01.09.17 210 (ЮЗ) 1300 м  дымка{ливн. осадки}  10/5 100 м кучево-дожд., средняя 
[Cb calv|Ac und]
+14.9 +13.9 94 +22  1013.8  -0.6  754  285           
03 01.09.17 210 (ЮЗ) 0700 м  туман  10/6 60 м средняя 
[St|Ac und]
+14.5 +13.6 94 +21  1014.2  0.3  754  286  +14.4       
06 01.09.17 220 (ЮЗ) 3900 м  в посл. час туман  10/8 180 м средняя 
[St|Ac und]
+15.3 +14.5 95 +24  1014.8  0.6  755  285  +14.3         
09 01.09.17 190 (Ю) 10 км    6/5 1000 м кучево-дожд., верхняя 
[Cb calv|Ci fib]
+20.8 +11.3 55 +24  1013.7  -1  754  280           
12 01.09.17 220 (ЮЗ) 5{10}  10 км    8/4 1000 м кучево-дожд., средняя, верхняя 
[Cb calv|Ac trans|Ci fib]
+21.8 +11.8 53 +25  1012.9  -0.6  753  279           
15 01.09.17 270 (З) 10 км    6/3 1000 м кучево-дожд., средняя, верхняя 
[Cb calv|Ac trans|Ci fib]
+20.8 +12.5 59 +25  1013.5  0.4  754  280    +23       
18 01.09.17 280 (З) 8000 м  дым  4/0 средняя, верхняя 
[Ac trans|Ci fib]
+16.1 +11.7 75 +20  1014.1  0.5  754  285           
21 01.09.17 280 (З) 6000 м  дымка  6/0 средняя, верхняя 
[Ac trans|Ci fib]
+14.7 +12.5 87 +21  1014  -0.1  754  286           
00 02.09.17 190 (Ю) 8000 м  дымка  6/1 1000 м кучево-дожд., средняя 
[Cb calv|Ac trans]
+14.3 +11.3 82 +18  1013.7  -0.3  754  286           
03 02.09.17 260 (З) 5000 м  дымка  6/0 средняя, верхняя 
[Ac trans|Ci fib]
+13.6 +11.2 85 +18  1013.7  754  287  +13.6         
06 02.09.17 200 (Ю) 10 км    8/0 средняя, верхняя 
[Ac trans|Ci fib]
+18.4 +13.4 73 +25  1014  0.4  754  282           
09 02.09.17 220 (ЮЗ) 10 км  в посл. час ливневой дождь  9/4 1000 м кучево-дожд., средняя 
[Cb calv|Ac trans]
+18.5 +13.5 73 +25  1013.5  -0.4  754  282           
12 02.09.17 250 (З) 6-10{12}  10 км  в посл. час ливневой дождь  9/5 600 м кучево-дожд., средняя 
[Cb calv|Ac trans]
+18.4 +14.1 76 +25  1013.6  754  282           
15 02.09.17 250 (З) 6{11}  10 км    6/3 1500 м кучево-дожд., средняя 
[Cb calv|Ac trans]
+18.7 +14 74 +26  1012.9  -0.5  753  281    +19.7     
18 02.09.17 240 (ЮЗ) 2{11}  6000 м  в посл. час ливневой дождь  5/4 300 м кучево-дожд., средняя 
[Cb calv|Ac trans]
+17.5 +15.3 87 +27  1013.8  0.6  754  282           
21 02.09.17 270 (З) 7000 м  дымка  3/0 средняя 
[Ac trans]
+16.2 +14.6 90 +25  1013.8  754  284           
00 03.09.17 300 (СЗ) 1300 м  туман  ясно 
+13.9 +12.5 91 +19  1014.1  0.1  754  287           
03 03.09.17 тихо ()   1100 м  туман  3/0 средняя 
[Ac trans]
+12.7 +11.5 92 +16  1014.5  0.4  754  288  +12.6    0.8     
06 03.09.17 250 (З) 7000 м  дымка{туман}  ясно 
+20.1 +12.8 63 +25  1014.3  754  281           
09 03.09.17 250 (З) 10 км    4/3 1000 м средняя 
[Cu med, cong|Ac trans]
+23.5 +11.1 46 +26  1013.7  -0.5  754  278           
12 03.09.17 240 (ЮЗ) 10 км    3/3 1000 м 
[Cu med, cong]
+25.2 +11.9 43 +29  1013  -0.5  753  276           
15 03.09.17 280 (З) 8000 м  дым  5/5 1500 м 
[Cu med, cong]
+24.7 +12.8 47 +30  1013  -0.1  753  276    +25.7       
18 03.09.17 330 (СЗ) 7000 м  дым  3/0 средняя 
[Ac trans]
+20.5 +14.3 68 +28  1013.7  0.6  754  280           
21 03.09.17 070 (В) 6000 м  дым  4/0 средняя 
[Ac trans]
+17.3 +13.7 79 +24  1013.8  754  283           
00 04.09.17 090 (В) 7000 м  дым  3/0 средняя 
[Ac trans]
+16.2 +13 81 +22  1013.9  754  284           
03 04.09.17 090 (В) 6000 м  дымка  4/0 средняя, верхняя 
[Ac trans|Ci fib]
+15.1 +13.1 88 +20  1014.4  0.3  754  285  +14.6         
06 04.09.17 100 (В) 6000 м  дым  ясно 
+20 +14.9 72 +28  1014.6  0.3  754  280           
09 04.09.17 110 (В) 10 км    3/3 600 м 
[Cu hum]
+25.2 +14.5 51 +33  1013.7  -0.6  754  275           
12 04.09.17 090 (В) 10 км    ясно 
+27.3 +12.9 41 +32  1013.1  -0.5  753  274           
15 04.09.17 070 (В) 10 км    ясно 
+25.6 +13.8 48 +32  1012.6  -0.4  753  275    +27.3       
18 04.09.17 080 (В) 8000 м    1/0 верхняя 
[Ci fib]
+21.9 +12.8 56 +27  1013  0.2  753  279           
21 04.09.17 090 (В) 8000 м    3/0 верхняя 
[Ci fib]
+19.4 +13.3 68 +26  1013.1  753  281           
00 05.09.17 100 (В) 8000 м    3/0 верхняя 
[Ci fib]
+18.2 +12.4 69 +22  1012.6  -0.6  753  282           
03 05.09.17 090 (В) 10 км    6/0 средняя, верхняя 
[Ac trans|Ci fib]
+18.2 +12.8 71 +23  1011.7  -0.8  752  282  +17.6         
06 05.09.17 090 (В) 10 км    5/0 средняя, верхняя 
[Ac trans|Ci fib]
+21.7 +14.2 62 +29  1011.5  -0.1  752  278           
09 05.09.17 150 (ЮВ) 10 км    8/0 средняя, верхняя 
[Ac trans|Ci fib]
+27.8 +15.6 47 +37  1010.9  -0.3  752  272           
12 05.09.17 290 (З) 10 км    5/0 средняя, верхняя 
[Ac trans|Ci fib]
+30.1 +16.5 44 +41  1010.1  -0.7  751  269           
15 05.09.17 270 (З) 8000 м  дым  8/1 2000 м кучево-дожд., средняя 
[Cb calv|Ac trans]
+24.3 +18 68 +39  1010.3  751  274    +31.9       
18 05.09.17 270 (З) 8000 м    9/1 1000 м кучево-дожд., средняя 
[Cb calv|Ac trans]
+22.2 +13 56 +28  1010.7  0.2  752  278           
21 05.09.17 280 (З) 8000 м    8/1 600 м кучево-дожд., средняя 
[Cb calv|Ac trans]
+21 +14 64 +28  1009.7  -0.9  751  278           
00 06.09.17 260 (З) 8000 м    8/3 600 м кучево-дожд., средняя 
[Cb calv|Ac trans]
+20.6 +15.1 71 +29  1009.3  -0.4  751  278           
03 06.09.17 210 (ЮЗ) 10 км    9/0 средняя, верхняя 
[Ac trans|Ci fib]
+18.4 +13.9 75 +27  1008.9  -0.5  750  280  +18.4         
06 06.09.17 230 (ЮЗ) 10 км    8/3 200 м средняя, верхняя 
[St|Ac trans|Ci fib]
+21.9 +17 74 +34  1008.5  -0.3  750  276           
09 06.09.17 240 (ЮЗ) 10 км    8/3 1170 м средняя, верхняя 
[Cu med, cong|Ac trans|Ci fib]
+26.9 +15.6 50 +37  1007.5  -0.6  749  272           
12 06.09.17 300 (СЗ) 10 км  гроза, ливневой дождь  10/4 1500 м кучево-дожд., средняя 
[Cb cap|Ac und]
+25 +14.1 51 +32  1005.6  -1.7  748  273           
15 06.09.17 040 (СВ) 6000 м  слаб. ливневой дождь{гроза}  10/5 200 м кучево-дожд., средняя 
[Cb calv|Ac und]
+19 +16.2 84 +30  1007.2  1.4  749  279    +27.3     
18 06.09.17 320 (СЗ) 6000 м  слаб. ливневой дождь{гроза}  10/5 300 м кучево-дожд., средняя 
[Cb calv|Ac und]
+17.7 +16.1 90 +29  1007.2  0.2  749  280           
21 06.09.17 350 (С) 8000 м  {ливн. осадки}  9/4 600 м кучево-дожд., средняя 
[Cb calv|Ac trans]
+16.2 +14.1 87 +24  1007.5  0.1  749  282           
00 07.09.17 300 (СЗ) 8000 м  {ливн. осадки}  9/4 1000 м кучево-дожд., средняя 
[Cb calv|Ac trans]
+15.3 +13 86 +21  1008  0.5  749  283           
03 07.09.17 280 (З) 10 км    9/1 1500 м кучево-дожд., средняя, верхняя 
[Cb calv|Ac trans|Ci fib]
+14.4 +11.5 83 +18  1008.8  0.6  750  285  +14.4       
06 07.09.17 280 (З) 10 км    8/0 средняя, верхняя 
[Ac trans|Ci fib]
+18.5 +11.5 64 +22  1010.5  1.8  751  281  +14.3         
09 07.09.17 250 (З) 7-10{11}  10 км    5/4 1000 м средняя 
[Cu med, cong|Ac trans]
+23.1 +11.1 47 +26  1010.1  -0.2  751  277           
12 07.09.17 240 (ЮЗ) 8-12{13}  10 км    3/3 1300 м 
[Cu med, cong]
+22.6 +11.5 49 +26  1010.7  0.5  752  278           
15 07.09.17 260 (З) 6-11{15}  10 км    4/0 средняя, верхняя 
[Ac trans|Ci fib]
+20.6 +12.3 59 +25  1012.2  1.4  753  280    +23.8       
18 07.09.17 260 (З) 5{15}  8000 м    3/0 средняя 
[Ac trans]
+20 +15.3 74 +29  1014  1.8  754  280           
21 07.09.17 270 (З) 10 км    ясно 
+18.8 +15.4 81 +28  1014.9  0.9  755  281           
00 08.09.17 240 (ЮЗ) 8000 м    9/0 средняя 
[Ac trans]
+18.3 +15.2 82 +28  1015.2  0.1  755  282           
03 08.09.17 230 (ЮЗ) 10 км    6/0 средняя 
[Ac trans]
+17.2 +15.5 90 +27  1015.5  0.3  755  283  +17.1         
06 08.09.17 240 (ЮЗ) 10 км    3/3 200 м 
[Frnb]
+21.6 +17.1 76 +34  1015.8  0.4  755  278           
09 08.09.17 270 (З) 5{10}  10 км    6/5 1000 м средняя 
[Cu med, cong|Ac trans]
+25.4 +14.1 50 +32  1015.1  -0.4  755  276           
12 08.09.17 250 (З) 7-10{11}  10 км    6/3 600 м верхняя 
[Cu med, cong|Ci fib]
+25.8 +14.1 48 +33  1014.8  -0.3  755  275           
15 08.09.17 260 (З) 5{11}  10 км    8/3 1000 м верхняя 
[Cu med, cong|Ci fib]
+23.7 +15.8 61 +34  1014.8  755  276    +26.1       
18 08.09.17 270 (З) 3{11}  8000 м    5/0 средняя, верхняя 
[Ac trans|Ci fib]
+20.6 +15.6 73 +30  1015.8  0.9  755  280           
21 08.09.17 270 (З) 8000 м    5/0 средняя, верхняя 
[Ac trans|Ci fib]
+18.6 +15 80 +28  1015.9  755  282           
00 09.09.17 тихо ()   5000 м  дымка  6/3 360 м средняя, верхняя 
[St|Ac trans|Ci fib]
+17.1 +14.3 84 +24  1016.2  0.2  756  284           
03 09.09.17 340 (С) 5000 м  местами туман поземный  4/0 средняя, верхняя 
[Ac trans|Ci fib]
+17 +15.3 90 +27  1016.9  0.7  756  284  +17         
06 09.09.17 060 (СВ) 10 км    8/8 2000 м средняя 
[Ac trans]
+20.6 +12.2 59 +25  1017.4  0.5  757  281           
09 09.09.17 340 (С) 10 км    6/1 1500 м средняя, верхняя 
[Cu hum|Ac trans|Ci fib]
+24.6 +10 40 +26  1017  -0.3  756  278           
12 09.09.17 240 (ЮЗ) 10 км    5/3 1500 м средняя 
[Cu hum|Ac trans]
+26 +9.2 35 +26  1016.4  -0.6  756  277           
15 09.09.17 350 (С) 10 км    1/0 средняя 
[Ac trans]
+24.6 +7.2 33 +25  1016.2  -0.1  756  278    +26.5       
18 09.09.17 060 (СВ) 8000 м    4/0 средняя, верхняя 
[Ac trans|Ci fib]
+18.5 +8.6 52 +19  1017.3  0.8  756  284           
21 09.09.17 050 (СВ) 8000 м    4/0 средняя, верхняя 
[Ac trans|Ci fib]
+15.4 +8.9 65 +15  1017.6  0.1  757  287           
00 10.09.17 080 (В) 8000 м    4/0 средняя, верхняя 
[Ac trans|Ci fib]
+15.8 +8.6 62 +16  1017.8  0.1  757  287           
03 10.09.17 080 (В) 10 км    3/0 верхняя 
[Ci fib]
+14 +8.8 71 +13  1018.2  0.4  757  289  +13.8         
06 10.09.17 090 (В) 10 км    3/0 верхняя 
[Ci fib]
+19.3 +10.2 56 +20  1018.3  0.1  757  283           
09 10.09.17 090 (В) 6{10}  10 км    3/0 средняя, верхняя 
[Ac trans|Ci fib]
+23.5 +8.6 39 +24  1017.7  -0.3  757  279           
12 10.09.17 080 (В) 6-10{11}  10 км    5/0 средняя, верхняя 
[Ac trans|Ci fib]
+24.7 +8.9 37 +25  1016.9  -0.9  756  278           
15 10.09.17 070 (В) 6{10}  10 км    9/0 средняя, верхняя 
[Ac trans|Ci]
+22.3 +9.3 43 +22  1016.6  -0.4  756  280    +25       
18 10.09.17 080 (В) 7{10}  8000 м    5/0 средняя, верхняя 
[Ac trans|Ci fib]
+19.9 +8.4 47 +20  1017.1  0.4  756  283           
21 10.09.17 080 (В) 5{10}  8000 м    4/0 средняя 
[Ac trans]
+17.7 +9.1 57 +18  1017.6  0.3  757  285           
00 11.09.17 080 (В) 5{10}  8000 м    4/0 средняя 
[Ac trans]
+16.8 +9.7 63 +18  1017.8  0.2  757  286           
03 11.09.17 080 (В) 10 км    1/0 средняя 
[Ac trans]
+16.2 +9 62 +16  1018  757  286  +16.1         
06 11.09.17 090 (В) 10 км    ясно 
+20.3 +10.8 54 +22  1017.7  757  282           
09 11.09.17 090 (В) 7-10{12}  10 км    ясно 
+25.6 +15.1 52 +34  1017.4  -0.1  757  276           
12 11.09.17 090 (В) 8-11{13}  10 км    3/3 1000 м 
[Cu med, cong]
+27.6 +14.2 44 +35  1016.1  -1.2  756  274           
15 11.09.17 070 (В) 5{11}  10 км    1/1 1000 м 
[Cu med, cong]
+26.4 +16.1 53 +37  1015.6  -0.4  755  274    +28       
18 11.09.17 070 (В) 6{11}  8000 м    ясно 
+23 +13.8 56 +29  1015.6  -0.1  755  278           
21 11.09.17 090 (В) 8000 м    ясно 
+19.9 +13.1 65 +26  1015.3  -0.3  755  281           
00 12.09.17 100 (В) 8000 м    ясно 
+17.7 +11.7 68 +21  1015.3  -0.1  755  283           
03 12.09.17 110 (В) 10 км    1/0 верхняя 
[Ci fib]
+16.5 +11.6 73 +20  1015.9  0.6  755  285  +16.2         
06 12.09.17 100 (В) 10 км    ясно 
+22.6 +14.1 59 +30  1015.7  755  278           
09 12.09.17 110 (В) 8-11{10}  10 км    ясно 
+29.8 +9.9 29 +31  1014.3  -1.2  754  272           
12 12.09.17 120 (ЮВ) 6-10{12}  10 км    ясно 
+30.9 +10.3 28 +32  1013.4  -0.8  754  271           
15 12.09.17 090 (В) 6{10}  10 км    ясно 
+27.1 +14.5 46 +35  1013  -0.3  753  273    +31.1       
18 12.09.17 080 (В) 5{10}  8000 м  дым  ясно 
+22.6 +15.1 63 +31  1012.8  -0.3  753  277           
21 12.09.17 090 (В) 5000 м  дым  ясно 
+20.9 +14.5 67 +29  1012.6  -0.3  753  279           
00 13.09.17 100 (В) 8000 м    ясно 
+18 +13.9 77 +26  1012.2  -0.3  753  282           
03 13.09.17 110 (В) 10 км    ясно 
+16.6 +13.6 82 +23  1012.7  0.3  753  283  +16.7         
06 13.09.17 110 (В) 10 км    3/0 средняя 
[Ac trans]
+22.1 +14.9 64 +30  1012.5  753  278  +16.6         
09 13.09.17 170 (Ю) 10 км    3/0 средняя, верхняя 
[Ac trans|Ci fib]
+31.4 +12.9 32 +37  1010.8  -1.3  752  269           
12 13.09.17 190 (Ю) 5{10}  10 км    ясно 
+33.9 +10.5 24 +36  1009.6  -1.1  751  267           
15 13.09.17 270 (З) 10 км    ясно 
+28.2 +14 42 +35  1009.8  751  272    +34.1       
18 13.09.17 290 (З) 8000 м    ясно 
+24 +14.8 56 +32  1010.4  0.5  751  275           
21 13.09.17 260 (З) 8000 м  дым  ясно 
+21.8 +16 70 +32  1010.1  -0.3  751  277           
00 14.09.17 230 (ЮЗ) 8000 м    3/0 средняя 
[Ac trans]
+20.2 +16.8 81 +32  1010.2  0.1  751  278           
03 14.09.17 310 (СЗ) 10 км    3/0 средняя 
[Ac trans]
+20.7 +16.2 75 +31  1012.6  2.1  753  279  +19.1         
06 14.09.17 290 (З) 10 км    ясно 
+22.5 +14 59 +29  1015  2.5  755  278           
09 14.09.17 260 (З) 10 км    4/4 1000 м 
[Cu hum]
+25.2 +11.6 43 +28  1016  756  277           
12 14.09.17 240 (ЮЗ) 10 км    3/3 1000 м 
[Cu hum]
+26 +12.8 44 +31  1015.8  755  276           
15 14.09.17 260 (З) 10 км    1/0 средняя 
[Ac trans]
+24.3 +12.8 49 +29  1015.6  -0.3  755  277    +26.4       
18 14.09.17 320 (СЗ) 8000 м    ясно 
+20.6 +14.2 67 +28  1016.2  0.5  756  280           
21 14.09.17 360 (С) 8000 м    ясно 
+18.2 +12.5 69 +23  1016.5  0.1  756  283           
00 15.09.17 080 (В) 7000 м  дымка  ясно 
+14.2 +11.7 85 +18  1016.4  -0.2  756  287           
03 15.09.17 100 (В) 6000 м  местами туман поземный  ясно 
+13.3 +11.3 88 +16  1016.4  756  288  +13.2         
06 15.09.17 100 (В) 10 км    1/0 средняя 
[Ac trans]
+21.4 +11.9 55 +25  1016.1  -0.1  756  280           
09 15.09.17 100 (В) 10 км    ясно 
+28.4 +11.9 36 +32  1014.3  -1.5  754  273           
12 15.09.17 150 (ЮВ) 10 км    ясно 
+31 +10.7 29 +33  1012.6  -1.6  753  271           
15 15.09.17 080 (В) 10 км    ясно 
+27.7 +12.3 38 +32  1012  -0.7  753  273    +31.2       
18 15.09.17 330 (СЗ) 8000 м    ясно 
+23.1 +12.7 52 +28  1013.2  1.1  753  277           
21 15.09.17 030 (СВ) 8000 м    ясно 
+22.9 +11.9 50 +27  1013.6  0.3  754  278           
00 16.09.17 070 (В) 8000 м    ясно 
+18.9 +11.4 62 +23  1014.1  0.3  754  282           
03 16.09.17 280 (З) 10 км    ясно 
+17.2 +11.2 68 +22  1015.7  1.4  755  284  +17.2         
06 16.09.17 360 (С) 10 км    ясно 
+23.4 +12 49 +27  1017.3  1.8  757  279  +17         
09 16.09.17 030 (СВ) 10 км    3/0 средняя, верхняя 
[Ac trans|Ci fib]
+30.8 +10.5 29 +32  1017  756  272           
12 16.09.17 350 (С) 10 км    3/0 верхняя 
[Ci fib]
+32.4 +9 24 +32  1016.6  -0.4  756  271           
15 16.09.17 080 (В) 10 км    ясно 
+28.9 +11.5 34 +32  1016.8  0.1  756  273    +32.6       
18 16.09.17 050 (СВ) 8000 м    ясно 
+24.1 +11.9 46 +28  1018.3  1.3  757  278           
21 16.09.17 040 (СВ) 8000 м    3/0 средняя 
[Ac trans]
+22.2 +11.8 52 +26  1018.7  0.3  758  280           
00 17.09.17 070 (В) 8000 м    3/0 средняя 
[Ac trans]
+18.6 +12 65 +23  1018.9  758  284           
06 17.09.17 060 (СВ) 10 км    3/0 средняя, верхняя 
[Ac trans|Ci fib]
+23.3 +11 46 +26  1019.7  0.3  758  280  +17.5         
09 17.09.17 080 (В) 6{10}  10 км    ясно 
+28.5 +12.2 37 +32  1018.8  -0.6  758  274           
12 17.09.17 070 (В) 6{10}  10 км    ясно 
+30.6 +13.4 35 +36  1017.2  -1.5  757  272           
15 17.09.17 070 (В) 10 км    ясно 
+28.1 +14.2 43 +35  1015.9  -1.4  756  273    +30.9       
18 17.09.17 080 (В) 8000 м  дым  ясно 
+25.4 +11.6 42 +29  1016  756  276           
21 17.09.17 080 (В) 8000 м    ясно 
+21.1 +10.6 51 +23  1015  -1.1  755  280           
00 18.09.17 080 (В) 8000 м    ясно 
+19 +8.9 52 +19  1014.3  -0.7  754  283           
03 18.09.17 080 (В) 8000 м    ясно 
+16.1 +9.5 65 +16  1014.5  0.1  754  285  +15.5         
06 18.09.17 080 (В) 10 км    ясно 
+21.7 +12.2 55 +26  1014.6  0.1  754  279           
09 18.09.17 100 (В) 10 км    ясно 
+29.6 +12.7 35 +34  1013  -1.2  753  272           
12 18.09.17 120 (ЮВ) 10 км    ясно 
+32.9 +7.9 21 +33  1011.5  -1.4  752  269           
15 18.09.17 090 (В) 10 км    ясно 
+28.5 +11.6 35 +32  1011.3  -0.3  752  272    +33.2       
18 18.09.17 080 (В) 8000 м    ясно 
+22.2 +10.6 48 +24  1011.8  0.3  752  278           
21 18.09.17 080 (В) 8000 м    ясно 
+21.6 +10.3 49 +23  1011.8  752  279           
00 19.09.17 340 (С) 8000 м    ясно 
+18.2 +11.3 64 +23  1012.1  0.1  753  282           
03 19.09.17 060 (СВ) 8000 м    ясно 
+16.2 +10.6 69 +19  1012.7  0.5  753  284  +15.8         
06 19.09.17 320 (СЗ) 7000 м  мгла  ясно 
+24.4 +11.4 44 +27  1013.7  1.1  754  277           
09 19.09.17 330 (СЗ) 10 км    ясно 
+29.4 +11.1 32 +32  1013.4  754  272           
12 19.09.17 080 (В) 7000 м  дым  ясно 
+32.5 +11.2 27 +35  1012.9  -0.4  753  269           
15 19.09.17 100 (В) 7000 м  дым  ясно 
+28.2 +13.9 42 +35  1013.1  753  272    +33.2       
18 19.09.17 030 (СВ) 6000 м  дым  ясно 
+24.7 +13.6 50 +31  1014.1  0.8  754  276           
21 19.09.17 020 (С) 8000 м  дым  ясно 
+22.9 +11.5 49 +26  1014.3  0.1  754  278           
00 20.09.17 050 (СВ) 8000 м  дым  3/0 средняя 
[Ac trans]
+19.2 +10.8 58 +22  1014.7  0.3  755  282           
03 20.09.17 060 (СВ) 8000 м    3/0 верхняя 
[Ci fib]
+16.4 +9.7 65 +18  1014.9  0.1  755  285  +16.5         
06 20.09.17 060 (СВ) 10 км    ясно 
+22.3 +10 46 +23  1015.6  0.7  755  280  +15.2         
09 20.09.17 100 (В) 5{10}  7000 м  дым  ясно 
+28.4 +11.9 36 +32  1015  -0.4  755  273           
12 20.09.17 080 (В) 6{10}  10 км    ясно 
+31.4 +8.6 24 +31  1014.4  -0.5  755  271           
15 20.09.17 080 (В) 10 км    1/0 верхняя 
[Ci fib]
+27.4 +9.7 33 +28  1014.3  -0.1  754  275    +31.7       
18 20.09.17 080 (В) 8000 м    1/0 средняя 
[Ac trans]
+25.2 +8.2 34 +25  1014.4  754  277           
21 20.09.17 060 (СВ) 8000 м    ясно 
+19.6 +10.4 55 +22  1014.4  -0.1  754  282           
00 21.09.17 060 (СВ) 8000 м    ясно 
+18.5 +10 58 +20  1014.1  -0.4  754  283           
03 21.09.17 060 (СВ) 8000 м    ясно 
+15.9 +10.4 70 +18  1014.5  0.4  754  285  +15.5         
06 21.09.17 080 (В) 10 км    ясно 
+22.2 +14.1 60 +29  1014.1  -0.2  754  278           
09 21.09.17 090 (В) 6{10}  10 км    ясно 
+29.2 +14.6 41 +37  1013.1  -0.8  754  271           
12 21.09.17 110 (В) 6-10{10}  10 км    ясно 
+31.1 +12.6 32 +36  1012.1  -0.9  753  270           
15 21.09.17 060 (СВ) 5{10}  10 км    ясно 
+28.1 +14.6 44 +36  1011.7  -0.3  752  272    +31.6       
18 21.09.17 080 (В) 8000 м    ясно 
+26.3 +13.2 44 +32  1012  0.2  753  274           
21 21.09.17 070 (В) 8000 м    ясно 
+21.7 +7.4 40 +22  1012.3  0.1  753  280           
00 22.09.17 080 (В) 8000 м    ясно 
+19.3 +5.4 40 +20  1012  -0.3  752  282           
03 22.09.17 080 (В) 9-12{13}  8000 м    ясно 
+18.5 +7.7 49 +18  1012.1  0.1  753  283  +18.5         
06 22.09.17 090 (В) 10-13{14}  10 км    ясно 
+22.4 +8.9 42 +22  1012.6  0.4  753  279  +17.9         
09 22.09.17 090 (В) 12-18{16}  10 км    ясно 
+29.5 +7 24 +30  1011.8  -0.6  753  273           
12 22.09.17 080 (В) 12-16{18}  10 км    4/0 средняя 
[Ac trans]
+30.5 +8.5 25 +31  1012.2  0.5  753  271           
15 22.09.17 070 (В) 11-18{17}  10 км    6/0 средняя 
[Ac trans]
+26.4 +6.5 28 +26  1013.4  1.4  754  276    +31.8       
18 22.09.17 080 (В) 12-17{19}  5000 м  дым  5/0 средняя 
[Ac trans]
+22.2 +7.1 38 +22  1016.4  2.1  756  280           
21 22.09.17 080 (В) 9-13{17}  6000 м  дым  4/0 средняя 
[Ac trans]
+18.3 +4.1 39 +18  1018.2  1.7  757  285           
00 23.09.17 090 (В) 11-14{17}  7000 м  дым  3/0 средняя 
[Ac trans]
+15.6 +4.2 47 +14  1020  1.7  758  288           
03 23.09.17 080 (В) 10-13{15}  7000 м  дым  4/0 средняя 
[Ac trans]
+12.4 +1.9 49 +10  1021.3  1.2  759  292  +12.4         
06 23.09.17 090 (В) 12-15{16}  6000 м  дым  8/0 средняя, верхняя 
[Ac trans|Ci fib]
+14.7 +2.9 45 +13  1021.7  0.4  760  290  +12.1         
09 23.09.17 090 (В) 11-15{17}  6000 м  дым  8/0 средняя, верхняя 
[Ac trans|Ci fib]
+19.6 +5.7 40 +19  1020.9  -0.6  759  284           
12 23.09.17 090 (В) 11-14{18}  6000 м  дым  9/0 верхняя 
[Ci]
+22.9 +5.6 33 +23  1020  -0.7  758  281           
15 23.09.17 080 (В) 7-10{17}  10 км    5/0 средняя, верхняя 
[Ac trans|Ci fib]
+20.4 +4.3 35 +20  1021.7  1.6  760  284    +23.2       
18 23.09.17 080 (В) 9-12{17}  8000 м    6/0 средняя, верхняя 
[Ac trans|Ci fib]
+17.7 +5.7 45 +17  1023.2  1.3  761  287           
21 23.09.17 080 (В) 8-11{15}  7000 м  дым  6/0 средняя, верхняя 
[Ac trans|Ci fib]
+15.5 +5 50 +15  1022.5  -0.7  760  289           
00 24.09.17 080 (В) 6{15}  8000 м    8/0 средняя, верхняя 
[Ac trans|Ci fib]
+14.2 +5.5 56 +13  1023.4  761  291           
03 24.09.17 080 (В) 7-10{11}  8000 м    6/1 1000 м кучево-дожд., средняя 
[Cb calv|Ac trans]
+12.4 +4.6 59 +11  1024  0.3  761  293  +12.4         
06 24.09.17 090 (В) 8-11{11}  10 км    6/1 1000 м кучево-дожд., средняя 
[Cb calv|Ac trans]
+15.6 +4.7 48 +15  1024.7  0.7  762  290  +12.1         
09 24.09.17 100 (В) 9-13{14}  5000 м  мгла  6/1 1000 м кучево-дожд., средняя 
[Cb calv|Ac trans]
+20.8 +4.2 34 +21  1024.6  762  285           
12 24.09.17 100 (В) 9-12{14}  6000 м  мгла  6/0 средняя, верхняя 
[Ac trans|Ci fib]
+22.5 +3.6 29 +23  1024.1  -0.3  762  283           
15 24.09.17 080 (В) 7-10{12}  10 км    6/1 1000 м кучево-дожд., средняя 
[Cb calv|Ac trans]
+20.2 +4.7 36 +20  1024.7  0.3  762  285    +22.6       
18 24.09.17 080 (В) 7-10{13}  5000 м  дым  6/1 1000 м кучево-дожд., средняя 
[Cb calv|Ac trans]
+19.9 +2.4 31 +20  1025.1  0.5  762  286           
21 24.09.17 070 (В) 7-10{11}  5000 м  дым  6/0 средняя 
[Ac trans]
+16.8 +4.2 43 +16  1025.7  0.3  763  289           
00 25.09.17 080 (В) 8-11{12}  6000 м  дым  4/0 средняя 
[Ac trans]
+15.3 +2.2 41 +14  1026  0.1  763  291           
03 25.09.17 080 (В) 9-12{13}  6000 м  дым  3/0 средняя 
[Ac trans]
+13.5 +0 39 +12  1026.8  0.9  763  293  +13.5         
06 25.09.17 080 (В) 10-14{15}  10 км    3/0 средняя 
[Ac trans]
+15.2 +2.9 44 +14  1028.3  1.3  764  291  +13.3         
09 25.09.17 080 (В) 9-13{14}  10 км    3/0 средняя, верхняя 
[Ac trans|Ci fib]
+20.5 +0.7 27 +21  1028.2  0.3  765  286           
12 25.09.17 070 (В) 10-14{15}  10 км    ясно 
+20.2 +3.6 33 +20  1027.9  -0.4  764  286           
15 25.09.17 080 (В) 7{14}  10 км    ясно 
+16.4 +1.7 37 +16  1028.2  0.1  764  290    +21.1       
18 25.09.17 070 (В) 8-11{14}  8000 м  дым  ясно 
+13.4 +0.6 42 +12  1028.9  0.5  765  294           
21 25.09.17 070 (В) 6{13}  8000 м    ясно 
+11.4 +0.6 47 +10  1028.8  -0.1  765  296           
00 26.09.17 070 (В) 7{13}  8000 м    3/0 верхняя 
[Ci fib]
+10.1 +0.3 51 +8  1028.3  -0.5  764  297           
03 26.09.17 060 (СВ) 5{10}  8000 м    4/0 средняя, верхняя 
[Ac trans|Ci fib]
+7.5 +1.7 67 +6  1028.3  764  300  +7.4         
06 26.09.17 080 (В) 9-11{12}  10 км    1/0 верхняя 
[Ci fib]
+11.5 +2.4 54 +10  1029  0.6  765  295  +7.1         
09 26.09.17 080 (В) 9-12{14}  10 км    3/3 600 м 
[Sc]
+15.1 +2.8 44 +14  1028.8  765  292           
12 26.09.17 070 (В) 8-12{14}  10 км  дым  1/0 средняя 
[Ac trans]
+17.1 +2.1 36 +17  1027.6  -1  764  289           
15 26.09.17 070 (В) 7-10{14}  10 км    1/0 средняя 
[Ac trans]
+14.2 +1.6 42 +13  1027.7  764  292    +17.2       
18 26.09.17 060 (СВ) 6{14}  8000 м    ясно 
+10.9 +1.5 52 +9  1028.9  1.1  765  296           
21 26.09.17 050 (СВ) 6{12}  8000 м    1/0 средняя 
[Ac trans]
+8.5 +1.4 61 +7  1028.8  -0.1  765  299           
00 27.09.17 050 (СВ) 6{12}  8000 м    ясно 
+7.3 +0.5 62 +5  1028.9  765  300           
03 27.09.17 050 (СВ) 8000 м    4/0 средняя 
[Ac trans]
+6.4 +0.5 66 +4  1029.4  0.5  765  301  +6         
06 27.09.17 060 (СВ) 7-10{11}  10 км    3/0 средняя 
[Ac trans]
+10.9 +3.1 59 +9  1029.9  0.7  766  296  +6         
09 27.09.17 080 (В) 8-11{13}  10 км    8/5 300 м кучево-дожд., средняя 
[Cb calv|Ac trans]
+11.8 +2 51 +10  1030.2  0.2  766  296           
12 27.09.17 070 (В) 8-11{15}  10 км    8/4 300 м средняя 
[Sc|Ac trans]
+14.1 -0.9 36 +13  1029.6  -0.4  765  293           
15 27.09.17 080 (В) 7-10{14}  10 км    6/4 1000 м средняя 
[Sc|Ac trans]
+11.8 -0.3 43 +10  1030.8  766  296    +15       
18 27.09.17 070 (В) 6{14}  8000 м    4/0 средняя 
[Ac trans]
+9.3 +0.1 53 +8  1032  1.1  767  299           
21 27.09.17 070 (В) 8-11{10}  8000 м    3/0 средняя 
[Ac trans]
+8.8 -0.7 51 +6  1032  767  300           
00 28.09.17 050 (СВ) 6{11}  8000 м    3/0 средняя 
[Ac trans]
+6.4 +0.3 65 +4  1032.1  767  302           
03 28.09.17 050 (СВ) 6{10}  8000 м    1/0 средняя 
[Ac trans]
+4.9 +0.6 74 +2  1032.9  0.6  768  304  +4.9         
06 28.09.17 080 (В) 8-11{13}  10 км    ясно 
+9.8 +2 58 +8  1033.7  0.9  768  299  +4.8         
09 28.09.17 080 (В) 9-14{15}  10 км    5/3 300 м средняя 
[Sc|Ac trans]
+14.6 +0.6 38 +13  1033.1  -0.1  768  294           
12 28.09.17 060 (СВ) 10-13{16}  10 км    6/4 300 м средняя 
[Sc|Ac trans]
+14.1 -1.6 34 +13  1033.3  768  295           
15 28.09.17 070 (В) 6{14}  10 км    5/0 средняя 
[Ac trans]
+11.8 -2.9 36 +11  1033.8  0.4  768  297    +15.6       
18 28.09.17 050 (СВ) 5{14}  8000 м    3/0 средняя 
[Ac trans]
+8.8 -1.8 47 +7  1034.7  0.7  769  300           
21 28.09.17 060 (СВ) 5{11}  8000 м    3/0 средняя 
[Ac trans]
+7.3 -0.6 57 +6  1034.7  0.1  769  302           
00 29.09.17 060 (СВ) 6{11}  8000 м    3/0 средняя 
[Ac trans]
+6.2 -0.9 60 +4  1034.3  -0.4  769  303           
03 29.09.17 060 (СВ) 5{11}  8000 м    ясно 
+3.9 -1.7 67 +2  1034.3  -0.1  769  306  +3.9         
06 29.09.17 080 (В) 6{10}  10 км    ясно 
+9.5 -1.3 47 +8  1034.1  769  299  +3.8        затоплена
водой 
09 29.09.17 070 (В) 7-12{12}  10 км    3/0 средняя, верхняя 
[Ac trans|Ci fib]
+13 -2.6 34 +12  1032.6  -1.3  768  296           
12 29.09.17 080 (В) 7-10{12}  10 км    ясно 
+13.9 -3.6 30 +13  1030.5  -2.1  766  294           
15 29.09.17 080 (В) 4{10}  10 км    ясно 
+10.8 -2.6 39 +10  1029.5  -1  765  297    +14.2       
18 29.09.17 070 (В) 3{10}  8000 м    ясно 
+6.2 -2.2 55 +5  1029.1  -0.5  765  302           
21 29.09.17 050 (СВ) 8000 м    ясно 
+4.8 -2.1 61 +3  1028.1  -1  764  303           
00 30.09.17 060 (СВ) 8000 м    ясно 
+3.4 -2.1 67 +1  1027.3  -0.9  763  304           
03 30.09.17 050 (СВ) 8000 м    ясно 
+2.2 -1.9 74 1026.5  -0.7  763  305  +2.1         
06 30.09.17 060 (СВ) 10 км    ясно 
+9.4 -0.8 49 +8  1026.3  763  297           
09 30.09.17 080 (В) 10 км    ясно 
+13.5 -1.2 36 +13  1024.7  -1.3  762  293           
12 30.09.17 070 (В) 10 км    ясно 
+14.6 -1.6 33 +14  1023.4  -1.3  761  291           
15 30.09.17 050 (СВ) 10 км    ясно 
+11 -1.4 42 +10  1023.5  761  295    +14.8       
18 30.09.17 040 (СВ) 5{11}  8000 м    ясно 
+7.7 -0.8 55 +6  1024.5  0.9  761  299           
21 30.09.17 030 (СВ) 8000 м    ясно 
+6.5 -0.8 60 +5  1024.3  -0.3  761  300           
00 01.10.17 030 (СВ) 8000 м    1/0 верхняя 
[Ci fib]
+6.2 -0.3 63 +5  1024  -0.3  761  300           
03 01.10.17 020 (С) 8000 м    8/5 1300 м средняя 
[Sc|Ac trans]
+7.6 +1.9 67 +7  1023.8  761  298  +4.8         
06 01.10.17 030 (СВ) 10 км    8/4 1000 м средняя 
[Sc|Ac trans]
+10.2 +3.1 61 +10  1024.5  0.7  762  295           
09 01.10.17 050 (СВ) 10 км    9/5 1320 м средняя 
[Sc|Ac trans]
+12.1 +2.1 50 +12  1024  -0.5  761  293           
12 01.10.17 010 (С) 10 км    6/4 1500 м средняя 
[Sc|Ac trans]
+13.4 +0 40 +13  1023.4  -0.3  761  292           
15 01.10.17 030 (СВ) 10 км    9/5 1500 м средняя 
[Sc|Ac trans]
+11.2 +0.9 49 +10  1024.6  762  295    +14.3       
18 01.10.17 030 (СВ) 5{10}  8000 м    9/4 1500 м средняя 
[Sc|Ac trans]
+9.2 +1 56 +8  1025.9  1.1  763  297           
21 01.10.17 050 (СВ) 8000 м    3/0 средняя 
[Ac trans]
+5.5 +0.3 69 +3  1026.4  0.4  763  301           
00 02.10.17 030 (СВ) 8000 м    4/1 600 м средняя 
[Sc|Ac trans]
+4.5 +0.5 75 +2  1026.6  0.1  763  302           
03 02.10.17 040 (СВ) 8000 м    6/4 420 м средняя 
[St|Ac trans]
+3.6 +0.9 82 +1  1027.1  0.4  763  303  +3.6         
06 02.10.17 060 (СВ) 7-10{11}  10 км    9/5 360 м средняя 
[Sc|Ac trans]
+7.4 +3.1 74 +5  1027.6  0.7  764  299  +3.5         
Время (UTC), дата Ветер
(°,м/с) 
Видим.   Явления Облачность Т
(°С)
Тd
(°С)
f(%) Тe
(°С)
Pmin
(гПа)
dP
(гПа)
Po
(мм)
O2
(г/м3)
Тmin Tmax R s Состояние
почвы